When you browse on this site, cookies collect data to enhance your experience and personalize the content and advertising you see.
Visit our Privacy Policy to learn more. By continuing to use the site, you agree to this use of cookies and data.
  • In Portugal
  • List of Countries
  • For 7 days
  • Water Temperature
  • Weather Map
  • Weather Widgets
  • user-avatar
    Login

    Hourly Weather Encamp

    Today, 23 September, Monday

    Time Temperature Precipitation Wind Pressure Humidity
    00:00 +7°C° 0 mm 2 mps 624 mmHg 94%
    01:00 +6°C° 0 mm 2 mps 623 mmHg 93%
    02:00 +6°C° 0 mm 1 mps 623 mmHg 92%
    03:00 +6°C° 0 mm 1 mps 623 mmHg 91%
    04:00 +6°C° 0 mm 1 mps 623 mmHg 89%
    05:00 +6°C° 0 mm 1 mps 623 mmHg 87%
    06:00 +6°C° 0 mm 1 mps 624 mmHg 85%
    07:00 +8°C° 0 mm 1 mps 625 mmHg 78%
    08:00 +10°C° 0 mm 1 mps 626 mmHg 72%
    09:00 +12°C° 0 mm 1 mps 627 mmHg 65%
    10:00 +13°C° 0 mm 1 mps 627 mmHg 59%
    11:00 +14°C° 0 mm 1 mps 627 mmHg 53%
    12:00 +16°C° 0 mm 2 mps 627 mmHg 47%
    13:00 +16°C° 0 mm 2 mps 627 mmHg 48%
    14:00 +16°C° 0 mm 1 mps 627 mmHg 49%
    15:00 +16°C° 0 mm 1 mps 627 mmHg 50%
    16:00 +14°C° 0 mm 1 mps 626 mmHg 58%
    17:00 +12°C° 0 mm 1 mps 625 mmHg 66%
    18:00 +9°C° 0 mm 0 mps 625 mmHg 75%
    19:00 +10°C° 0 mm 1 mps 625 mmHg 74%
    20:00 +10°C° 0 mm 1 mps 625 mmHg 74%
    21:00 +9°C° 0 mm 1 mps 625 mmHg 73%
    22:00 +10°C° 0 mm 1 mps 625 mmHg 72%
    23:00 +10°C° 0 mm 1 mps 625 mmHg 71%

    Tomorrow, 24 September, Tuesday

    Time Temperature Precipitation Wind Pressure Humidity
    00:00 +10°C° 0 mm 1 mps 625 mmHg 70%
    01:00 +10°C° 0 mm 1 mps 624 mmHg 70%
    02:00 +10°C° 0 mm 1 mps 624 mmHg 71%
    03:00 +10°C° 0 mm 1 mps 624 mmHg 71%
    04:00 +10°C° 0 mm 1 mps 623 mmHg 72%
    05:00 +10°C° 0 mm 1 mps 623 mmHg 73%
    06:00 +10°C° 0 mm 1 mps 623 mmHg 74%
    07:00 +13°C° 0 mm 1 mps 624 mmHg 66%
    08:00 +15°C° 0 mm 1 mps 626 mmHg 59%
    09:00 +19°C° 0 mm 1 mps 627 mmHg 51%
    10:00 +20°C° 0 mm 1 mps 627 mmHg 50%
    11:00 +21°C° 0 mm 1 mps 627 mmHg 48%
    12:00 +20°C° 0 mm 2 mps 627 mmHg 47%
    13:00 +20°C° 0 mm 2 mps 627 mmHg 48%
    14:00 +19°C° 0 mm 2 mps 626 mmHg 50%
    15:00 +19°C° 0 mm 2 mps 626 mmHg 52%
    16:00 +17°C° 0 mm 2 mps 625 mmHg 62%
    17:00 +15°C° 0 mm 1 mps 625 mmHg 72%
    18:00 +13°C° 0 mm 1 mps 624 mmHg 83%
    19:00 +12°C° 0.1 mm 1 mps 624 mmHg 85%
    20:00 +10°C° 0.1 mm 0 mps 624 mmHg 87%
    21:00 +10°C° 0.1 mm 0 mps 624 mmHg 89%
    22:00 +9°C° 0 mm 0 mps 624 mmHg 90%
    23:00 +9°C° 0 mm 0 mps 623 mmHg 91%

    Day after tomorrow, 25 September, Wednesday

    Time Temperature Precipitation Wind Pressure Humidity
    00:00 +8°C° 0 mm 0 mps 623 mmHg 92%
    01:00 +8°C° 0 mm 0 mps 623 mmHg 93%
    02:00 +8°C° 0 mm 0 mps 623 mmHg 93%
    03:00 +8°C° 0 mm 0 mps 623 mmHg 93%
    04:00 +9°C° 0 mm 1 mps 623 mmHg 94%
    05:00 +9°C° 0 mm 1 mps 623 mmHg 94%
    06:00 +9°C° 0 mm 1 mps 623 mmHg 95%
    07:00 +10°C° 0.1 mm 1 mps 624 mmHg 91%
    08:00 +11°C° 0.1 mm 1 mps 624 mmHg 88%
    09:00 +12°C° 0.1 mm 1 mps 625 mmHg 85%
    10:00 +12°C° 0.1 mm 1 mps 625 mmHg 85%
    11:00 +12°C° 0.1 mm 1 mps 625 mmHg 85%
    12:00 +12°C° 0.1 mm 2 mps 625 mmHg 85%
    13:00 +12°C° 0.1 mm 1 mps 625 mmHg 85%
    14:00 +12°C° 0.1 mm 1 mps 625 mmHg 85%
    15:00 +11°C° 0.1 mm 1 mps 624 mmHg 86%
    16:00 +11°C° 0.1 mm 1 mps 624 mmHg 88%
    17:00 +10°C° 0.1 mm 1 mps 624 mmHg 89%
    18:00 +10°C° 0.1 mm 1 mps 624 mmHg 91%
    19:00 +10°C° 0.1 mm 1 mps 624 mmHg 92%
    20:00 +9°C° 0.1 mm 1 mps 625 mmHg 92%
    21:00 +9°C° 0.1 mm 1 mps 625 mmHg 93%
    22:00 +9°C° 0 mm 1 mps 625 mmHg 93%
    23:00 +8°C° 0 mm 1 mps 624 mmHg 93%

    26 September, Thursday

    Time Temperature Precipitation Wind Pressure Humidity
    00:00 +7°C° 0 mm 1 mps 624 mmHg 94%
    01:00 +7°C° 0 mm 1 mps 624 mmHg 93%
    02:00 +7°C° 0 mm 1 mps 624 mmHg 92%
    03:00 +7°C° 0 mm 1 mps 624 mmHg 91%
    04:00 +7°C° 0 mm 1 mps 624 mmHg 91%
    05:00 +6°C° 0 mm 1 mps 624 mmHg 90%
    06:00 +6°C° 0 mm 1 mps 624 mmHg 89%
    07:00 +9°C° 0 mm 1 mps 626 mmHg 81%
    08:00 +12°C° 0 mm 1 mps 627 mmHg 72%
    09:00 +14°C° 0 mm 0 mps 628 mmHg 63%
    10:00 +16°C° 0 mm 1 mps 629 mmHg 59%
    11:00 +18°C° 0 mm 1 mps 629 mmHg 54%
    12:00 +19°C° 0 mm 1 mps 629 mmHg 50%
    13:00 +18°C° 0 mm 2 mps 629 mmHg 52%
    14:00 +18°C° 0 mm 2 mps 628 mmHg 53%
    15:00 +18°C° 0 mm 2 mps 628 mmHg 55%
    16:00 +16°C° 0 mm 1 mps 627 mmHg 65%
    17:00 +13°C° 0 mm 1 mps 626 mmHg 76%
    18:00 +10°C° 0 mm 0 mps 626 mmHg 86%
    19:00 +10°C° 0 mm 0 mps 626 mmHg 86%
    20:00 +11°C° 0 mm 1 mps 626 mmHg 86%
    21:00 +10°C° 0 mm 1 mps 626 mmHg 86%
    22:00 +10°C° 0 mm 1 mps 626 mmHg 85%
    23:00 +10°C° 0 mm 1 mps 626 mmHg 84%

    27 September, Friday

    Time Temperature Precipitation Wind Pressure Humidity
    00:00 +10°C° 0 mm 1 mps 625 mmHg 83%
    01:00 +10°C° 0 mm 1 mps 625 mmHg 82%
    02:00 +10°C° 0 mm 1 mps 625 mmHg 82%
    03:00 +10°C° 0 mm 1 mps 625 mmHg 82%
    04:00 +10°C° 0 mm 1 mps 625 mmHg 82%
    05:00 +9°C° 0 mm 1 mps 625 mmHg 82%
    06:00 +9°C° 0 mm 1 mps 625 mmHg 83%
    07:00 +12°C° 0 mm 1 mps 626 mmHg 75%
    08:00 +14°C° 0 mm 1 mps 627 mmHg 67%
    09:00 +18°C° 0 mm 1 mps 628 mmHg 60%
    10:00 +18°C° 0 mm 1 mps 629 mmHg 58%
    11:00 +18°C° 0 mm 2 mps 629 mmHg 55%
    12:00 +19°C° 0 mm 2 mps 629 mmHg 53%
    13:00 +18°C° 0 mm 2 mps 629 mmHg 57%
    14:00 +18°C° 0 mm 2 mps 628 mmHg 61%
    15:00 +17°C° 0 mm 2 mps 627 mmHg 65%
    16:00 +16°C° 0 mm 1 mps 627 mmHg 72%
    17:00 +14°C° 0 mm 1 mps 627 mmHg 79%
    18:00 +11°C° 0 mm 0 mps 626 mmHg 86%
    19:00 +11°C° 0 mm 0 mps 626 mmHg 88%
    20:00 +10°C° 0 mm 0 mps 627 mmHg 90%
    21:00 +11°C° 0 mm 1 mps 627 mmHg 92%
    22:00 +10°C° 0 mm 0 mps 627 mmHg 93%
    23:00 +9°C° 0 mm 0 mps 627 mmHg 94%

    28 September, Saturday

    Time Temperature Precipitation Wind Pressure Humidity
    00:00 +9°C° 0 mm 0 mps 626 mmHg 95%
    01:00 +9°C° 0 mm 0 mps 626 mmHg 95%
    02:00 +9°C° 0 mm 0 mps 626 mmHg 95%
    03:00 +10°C° 0 mm 1 mps 626 mmHg 96%
    04:00 +10°C° 0 mm 1 mps 626 mmHg 96%
    05:00 +10°C° 0 mm 1 mps 626 mmHg 96%
    06:00 +10°C° 0 mm 1 mps 626 mmHg 96%
    07:00 +11°C° 0 mm 1 mps 627 mmHg 90%
    08:00 +13°C° 0 mm 1 mps 628 mmHg 84%
    09:00 +15°C° 0 mm 2 mps 629 mmHg 79%
    10:00 +16°C° 0.1 mm 2 mps 629 mmHg 74%
    11:00 +17°C° 0.1 mm 2 mps 629 mmHg 69%
    12:00 +18°C° 0.1 mm 2 mps 629 mmHg 63%
    13:00 +18°C° 0.1 mm 2 mps 629 mmHg 64%
    14:00 +18°C° 0.1 mm 2 mps 628 mmHg 65%
    15:00 +18°C° 0.1 mm 2 mps 628 mmHg 67%
    16:00 +16°C° 0 mm 2 mps 627 mmHg 76%
    17:00 +14°C° 0 mm 1 mps 626 mmHg 86%
    18:00 +12°C° 0 mm 1 mps 625 mmHg 95%
    19:00 +11°C° 0 mm 1 mps 625 mmHg 95%
    20:00 +11°C° 0 mm 1 mps 625 mmHg 94%
    21:00 +11°C° 0 mm 1 mps 625 mmHg 94%
    22:00 +11°C° 0 mm 1 mps 625 mmHg 93%
    23:00 +11°C° 0 mm 1 mps 624 mmHg 91%
    Show more